GORIZONT 29 [-]

Last updated on Jan. 26, 2020, 4:40 a.m. UTC

1 22907U 93072A   20025.43197947 -.00000281  00000-0  00000+0 0  9995
2 22907  14.8560   6.0570 0015685 317.7296  53.3022  1.00117167 95827
UTC
Height (km)
Latitude
Longitude
Inclination
Orbital Period
UTC large
Height (km)
Speed (km/s)
/
Latitude / Longitude
Inclination (degrees)
Orbital Period (minutes)
Azimuth
Elevation
Range (km)
Doppler Factor
iOS Compass Heading
iOS Angle

Next 30 passes for location: Hong Kong

Rise time Rise Azimuth (degrees) Set time Set Azimuth (degrees) Duration Max altitude (degrees)

No matching passes for this satellites